Het weer levert geen direct gevaar op.    Er zijn geen waarschuwingen afgegeven.

Onweer radar more information blitzortung!


Regen radar more information rain snow radar


Meteo Sauwerd

Weerstation Alkmaar Centrum

Weerstation Luyksgestel

Website Noardburgum

Weerstation Noordbergum



Select another period ( hide this area )

Eenheden Periode Custom range Directly to
Metrisch Engels Beide
Dagelijkse Wekelijkse Maandelijkse Jaarlijkse
use both date-selectors for a custom range
previous Dag
With this date

WeatherUnderground graphs for this period ( click here )


Dagelijkse Samenvatting Woensdag 17 oktober 2018
Tijd Temp. ( °C ) Dew pt. ( °C ) Wind ( km/h ) van Windvlaag ( km/h ) Luchtdruk ( hPa ) Humid.( % ) Rainrate ( cm ) Zonneschijn ( W/m2 )
Hoog18,7 14,7 11,1 ZW ( 175/676 ) 16,1 1018,8 94 - 438
Gemiddeld14,3 11,8 2,9 ZW #51/230 -15,0 1003,2 84 - 134 #117/230
Laag-17,8 -17,8 -   -1607,4 0,0 0 -  
Dagelijkse Tabular details for Woensdag 17 oktober 2018
Tijd Temp. ( °C ) Dew pt. ( °C ) Wind ( km/h ) van Windvlaag ( km/h ) Luchtdruk ( hPa ) Humid.( % ) Rainrate ( cm ) Zonneschijn ( W/m2 )
00:01 14,2 12,4 1,4 ZO 1,6 1015,8 89 - -
00:05 14,2 12,4 1,4 ZO 4,8 1015,5 89 - -
00:09 14,1 12,1   Windstil 4,8 1015,5 88 - -
00:14 14,1 12,1 1,4 ZO 1,6 1015,5 88 - -
00:18 14,1 12,1   Windstil 3,2 1015,5 88 - -
00:23 14,1 12,1   Windstil 3,2 1015,5 88 - -
00:27 14,0 12,0 1,4 ZO 4,8 1015,5 88 - -
00:32 14,0 12,0 1,4 ZO 3,2 1015,5 88 - -
00:36 13,9 11,9 4,7 ZO 4,8 1015,5 88 - -
00:40 13,9 11,9 3,2 ZO 4,8 1015,5 88 - -
00:45 13,9 11,9 1,4 ZO 3,2 1015,5 88 - -
00:49 13,9 11,9 1,4 ZO 4,8 1015,5 88 - -
00:54 13,9 11,9 1,4 ZO 3,2 1015,5 88 - -
00:58 13,9 11,9 1,4 ZO 4,8 1015,5 88 - -
01:03 13,8 11,8 1,4 ZO 4,8 1015,1 88 - -
01:07 13,8 11,8 3,2 ZO 4,8 1015,5 88 - -
01:12 13,8 11,8 4,7 ZO 4,8 1015,5 88 - -
01:16 13,8 11,8 3,2 ZO 6,4 1015,5 88 - -
01:21 13,8 11,8 4,7 ZO 4,8 1015,5 88 - -
01:25 13,8 11,8 1,4 ZZO 6,4 1015,1 88 - -
01:30 13,8 11,7 1,4 ZZO 8,0 1015,5 87 - -
01:34 13,8 11,7 1,4 ZZO 6,4 1015,5 87 - -
01:39 13,8 11,7 4,7 ZZO 8,0 1015,5 87 - -
01:43 13,8 11,7 6,4 ZZO 6,4 1015,1 87 - -
01:47 13,8 11,7 1,4 ZZO 4,8 1015,5 87 - -
01:52 13,9 11,8 3,2 ZZO 4,8 1015,5 87 - -
01:56 13,9 11,6 1,4 ZZO 4,8 1015,5 86 - -
02:01 13,9 11,6 1,4 ZZO 4,8 1015,1 86 - -
02:06 13,9 11,6 1,4 ZZO 6,4 1015,1 86 - -
02:10 13,9 11,6 6,4 ZZO 9,7 1015,1 86 - -
02:14 13,9 11,6 4,7 ZZO 6,4 1015,1 86 - -
02:19 14,0 11,7 4,7 ZZO 11,3 1015,1 86 - -
02:23 14,1 11,8 3,2 ZZO 6,4 1015,1 86 - -
02:28 14,2 11,7 4,7 ZZO 11,3 1015,1 85 - -
02:32 14,2 11,7 6,4 ZZO 8,0 1015,1 85 - -
02:37 14,3 11,8 3,2 ZZO 11,3 1015,1 85 - -
02:41 14,4 11,7 6,4 ZZO 9,7 1015,1 84 - -
02:46 14,6 11,9 7,9 ZZO 9,7 1015,1 84 - -
02:50 14,6 11,9 4,7 Zuiden 8,0 1015,1 84 - -
02:54 14,6 11,9 9,7 ZZO 9,7 1015,1 84 - -
02:59 14,6 11,7 3,2 Zuiden 6,4 1015,1 83 - -
03:03 14,6 11,7 3,2 Zuiden 4,8 1015,1 83 - -
03:07 14,6 11,7 3,2 Zuiden 6,4 1015,1 83 - -
03:12 14,6 11,7 3,2 Zuiden 6,4 1015,1 83 - -
03:16 14,6 11,7 3,2 ZW 4,8 1015,5 83 - -
03:21 14,5 11,6 1,4 ZW 4,8 1015,1 83 - -
03:25 14,4 11,5 3,2 ZW 3,2 1015,1 83 - -
03:30 14,3 11,5 3,2 ZW 4,8 1015,1 83 - -
03:34 14,2 11,5   Windstil 3,2 1015,1 84 - -
03:39 14,2 11,5   Windstil   1015,1 84 - -
03:43 14,0 11,3 1,4 ZW 4,8 1015,1 84 - -
03:47 13,9 11,2 3,2 ZW 3,2 1015,1 84 - -
03:52 13,7 11,0 1,4 ZW 4,8 1015,1 84 - -
03:56 13,6 11,1 3,2 ZW 4,8 1015,1 85 - -
04:01 13,6 11,1 1,4 ZW 3,2 1015,1 85 - -
04:06 13,4 10,9 3,2 ZW 3,2 1015,1 85 - -
04:10 13,3 10,8   Windstil 1,6 1015,1 85 - -
04:15 13,2 10,9   Windstil 3,2 1015,1 86 - -
04:19 13,2 10,9   Windstil 3,2 1015,1 86 - -
04:23 13,1 10,8   Windstil 1,6 1015,1 86 - -
04:28 13,0 10,7   Windstil 3,2 1015,1 86 - -
04:32 12,9 10,6 1,4 ZW 1,6 1015,1 86 - -
04:37 12,8 10,5   Windstil 1,6 1015,1 86 - -
04:42 12,7 10,6 3,2 ZW 4,8 1015,1 87 - -
04:46 12,7 10,6 1,4 ZW 4,8 1015,1 87 - -
04:51 12,6 10,5   Windstil 3,2 1015,1 87 - -
04:55 12,5 10,4   Windstil 3,2 1015,1 87 - -
04:59 12,4 10,3 3,2 ZW 3,2 1015,1 87 - -
05:04 12,4 10,5   Windstil 3,2 1015,1 88 - -
05:09 12,3 10,4 1,4 ZW 1,6 1015,1 88 - -
05:13 12,3 10,4 1,4 ZW 3,2 1015,1 88 - -
05:18 12,3 10,4 1,4 ZW 6,4 1015,1 88 - -
05:22 12,3 10,4 1,4 ZW 3,2 1015,1 88 - -
05:27 12,2 10,4 3,2 ZW 4,8 1015,1 89 - -
05:31 12,2 10,4 1,4 ZW 4,8 1015,1 89 - -
05:36 12,2 10,4 1,4 ZZW 6,4 1015,1 89 - -
05:40 12,2 10,4 1,4 ZZW 4,8 1015,1 89 - -
05:45 12,2 10,4 3,2 ZZW 4,8 1015,1 89 - -
05:49 12,2 10,4 1,4 ZZW 4,8 1015,1 89 - -
05:54 12,2 10,6 3,2 ZZW 4,8 1015,1 90 - -
05:58 12,2 10,6 4,7 ZZW 6,4 1015,1 90 - -
06:03 12,2 10,6 3,2 Zuiden 6,4 1015,1 90 - -
06:07 12,2 10,6 4,7 Zuiden 4,8 1015,1 90 - -
06:11 12,2 10,6 4,7 Zuiden 6,4 1015,1 90 - -
06:17 12,2 10,6 3,2 Zuiden 6,4 1015,1 90 - -
06:21 12,2 10,6 1,4 Zuiden 3,2 1015,5 90 - -
06:25 12,2 10,6 1,4 Zuiden 4,8 1015,5 90 - -
06:30 12,2 10,6 4,7 Zuiden 4,8 1015,5 90 - -
06:33 12,1 10,5 3,2 Zuiden 4,8 1015,5 90 - -
07:54 11,9 10,1   Windstil 3,2 1015,8 89 - -
07:58 11,9 10,1 1,4 ZZW 3,2 1015,8 89 - -
08:02 11,8 10,0 3,2 ZZW 4,8 1015,8 89 - -
08:06 11,7 9,9 1,4 ZZW 4,8 1015,8 89 - -
08:11 11,7 9,9   Windstil 4,8 1015,8 89 - 5
08:16 11,6 10,0 3,2 ZZW 3,2 1016,1 90 - 7
08:20 11,5 9,9   Windstil 1,6 1016,1 90 - 11
08:24 11,4 9,8   Windstil 3,2 1016,1 90 - 12
08:28 11,4 9,8 1,4 ZZW 3,2 1016,1 90 - 14
08:33 11,4 9,8 1,4 ZZW 3,2 1016,1 90 - 16
08:37 11,3 9,7 1,4 ZZW 3,2 1016,1 90 - 18
08:41 11,3 9,7 3,2 ZZW 4,8 1016,1 90 - 21
08:46 11,3 9,9 3,2 ZZW 4,8 1016,1 91 - 26
08:51 11,4 10,0 1,4 ZZW 3,2 1016,1 91 - 32
08:55 11,4 10,1 1,4 ZZW 4,8 1016,1 92 - 35
08:59 11,5 10,2 3,2 ZZW 3,2 1016,1 92 - 42
09:03 11,6 10,3 3,2 ZZW 4,8 1016,1 92 - 47
09:08 11,7 10,6 4,7 ZZW 6,4 1016,1 93 - 54
09:12 11,8 10,7 3,2 ZZW 4,8 1016,1 93 - 58
09:16 11,9 10,8 3,2 ZZW 6,4 1016,1 93 - 63
09:20 12,1 11,0 4,7 ZW 6,4 1016,1 93 - 63
09:25 12,3 11,2 4,7 ZW 6,4 1016,5 93 - 70
09:30 12,4 11,3 4,7 ZW 6,4 1016,5 93 - 74
09:34 12,6 11,7 3,2 ZW 6,4 1016,5 94 - 76
09:39 12,7 11,6 7,9 ZW 8,0 1016,5 93 - 76
09:43 12,8 11,7 4,7 ZZW 6,4 1016,5 93 - 76
09:48 12,9 11,8 3,2 ZZW 4,8 1016,5 93 - 81
09:52 13,1 12,0 3,2 ZW 6,4 1016,5 93 - 84
09:56 13,2 12,1 4,7 ZW 6,4 1016,5 93 - 83
10:01 13,3 12,2   Windstil 4,8 1016,5 93 - 74
10:05 13,4 12,3 3,2 ZW 4,8 1016,5 93 - 69
10:10 13,4 12,3 4,7 ZW 6,4 1016,8 93 - 69
10:14 13,6 12,5 3,2 ZW 4,8 1016,8 93 - 72
10:19 13,7 12,6 3,2 ZW 4,8 1016,8 93 - 72
10:23 13,8 12,7 4,7 ZW 6,4 1016,8 93 - 70
10:28 13,9 12,8 1,4 ZW 4,8 1016,8 93 - 69
10:32 14,0 12,9 1,4 ZW 4,8 1016,8 93 - 74
10:36 14,1 13,0 1,4 ZW 6,4 1016,8 93 - 72
10:41 14,2 13,1 1,4 ZW 6,4 1016,8 93 - 70
10:45 14,3 13,2 3,2 ZW 4,8 1016,8 93 - 74
10:50 14,5 13,5 3,2 ZW 4,8 1016,8 94 - 74
10:55 14,7 13,7 1,4 ZW 8,0 1016,8 94 - 76
10:59 14,8 13,8 4,7 ZW 6,4 1016,8 94 - 77
11:03 15,0 14,0 6,4 ZW 8,0 1016,8 94 - 77
11:08 15,1 14,1 4,7 ZZW 8,0 1016,8 94 - 84
11:12 15,3 14,3 3,2 ZW 6,4 1016,8 94 - 86
11:43 -17,8 -17,8   Windstil -1607,4 0,0 0 - -
11:54 -17,8 -17,8   Windstil -1607,4 0,0 0 - -
12:12 -17,8 -17,8   Windstil -1607,4 0,0 0 - -
12:20 17,1 14,6 6,4 Westen 9,7 1017,2 85 - 271
12:29 17,2 14,5 3,2 ZW 6,4 1017,2 84 - 220
12:34 17,3 14,6 3,2 Westen 6,4 1017,2 84 - 287
12:39 17,3 14,6 4,7 ZW 6,4 1017,2 84 - 264
12:44 17,4 14,7 9,7 ZW 12,9 1017,2 84 - 306
12:49 17,6 14,7 6,4 ZW 6,4 1017,2 83 - 260
12:54 17,7 14,6 9,7 ZZW 9,7 1017,2 82 - 311
12:59 17,8 14,7 4,7 ZW 9,7 1017,2 82 - 290
13:04 17,9 14,4 4,7 WNW 9,7 1017,2 80 - 345
13:09 17,9 14,4 4,7 ZZW 12,9 1017,2 80 - 388
13:14 18,1 14,4 4,7 ZW 11,3 1017,2 79 - 374
13:19 18,2 14,3 7,9 ZW 11,3 1017,2 78 - 371
13:24 18,3 14,2   Windstil 8,0 1017,2 77 - 369
13:29 18,3 14,4 6,4 Westen 6,4 1017,2 78 - 392
13:34 18,3 14,2 7,9 WZW 8,0 1017,2 77 - 371
13:39 18,4 14,3 7,9 ZZW 12,9 1017,2 77 - 404
13:44 18,5 14,0 1,4 Westen 11,3 1017,2 75 - 104
13:49 18,5 14,2 1,4 Westen 8,0 1017,2 76 - 378
13:54 18,5 14,2 7,9 ZW 12,9 1017,2 76 - 438
13:59 18,6 14,1 3,2 Westen 9,7 1017,2 75 - 422
14:04 18,7 14,2 1,4 ZW 6,4 1017,2 75 - 406
14:09 18,7 14,0 3,2 Westen 12,9 1017,2 74 - 408
14:14 18,7 14,0 3,2 Westen 11,3 1017,2 74 - 202
14:19 18,6 13,9 6,4 Westen 9,7 1017,2 74 - 381
14:24 18,6 14,1 1,4 Westen 14,5 1017,2 75 - 359
14:29 18,5 13,8 3,2 Westen 9,7 1017,2 74 - 299
14:34 18,5 14,0 4,7 Westen 11,3 1017,2 75 - 397
14:39 18,5 14,0 3,2 Westen 6,4 1017,2 75 - 397
14:44 18,5 14,0 4,7 Westen 11,3 1017,2 75 - 109
14:49 18,4 13,9   Windstil 6,4 1017,2 75 - 142
14:54 18,3 13,8 6,4 WNW 12,9 1017,2 75 - 123
14:59 18,3 13,8 4,7 WNW 9,7 1017,2 75 - 149
15:04 18,2 13,7 9,7 Westen 14,5 1017,2 75 - 134
15:09 18,2 13,9 3,2 WNW 8,0 1017,5 76 - 352
15:14 18,2 13,7 4,7 Westen 4,8 1017,5 75 - 107
15:19 18,2 13,7 1,4 WZW 11,3 1017,5 75 - 125
15:24 18,1 13,6 3,2 Westen 12,9 1017,5 75 - 127
15:29 18,1 13,6 6,4 Westen 12,9 1017,5 75 - 130
15:34 18,1 13,6 1,4 WNW 11,3 1017,5 75 - 109
15:39 18,0 13,3 9,7 Westen 16,1 1017,5 74 - 125
15:44 18,0 13,3 1,4 WZW 12,9 1017,5 74 - 116
15:49 18,0 13,5 1,4 WNW 11,3 1017,5 75 - 141
15:54 18,0 13,3 6,4 WZW 11,3 1017,5 74 - 142
15:59 18,0 13,5 9,7 Westen 16,1 1017,5 75 - 105
16:04 18,0 13,3 1,4 Westen 9,7 1017,5 74 - 98
16:09 17,9 13,4 6,4 WZW 9,7 1017,5 75 - 91
16:14 17,9 13,8 9,7 NW 14,5 1017,5 77 - 86
16:19 17,8 13,9 7,9 NNW 8,0 1017,5 78 - 98
16:24 17,8 13,9 3,2 Westen 6,4 1017,8 78 - 132
16:29 17,8 14,1 9,7 Westen 11,3 1017,8 79 - 95
16:34 17,7 14,0 4,7 NW 6,4 1017,8 79 - 104
16:39 17,6 14,1 3,2 NW 11,3 1017,8 80 - 105
16:44 17,5 13,8 4,7 WNW 11,3 1017,8 79 - 118
16:49 17,5 13,8 11,1 Westen 11,3 1017,8 79 - 105
16:54 17,5 13,8 1,4 Westen 11,3 1017,8 79 - 91
16:59 17,4 13,5 3,2 NW 11,3 1017,8 78 - 67
17:04 17,3 13,2 4,7 Westen 6,4 1017,8 77 - 49
17:09 17,2 13,1 3,2 Westen 9,7 1017,8 77 - 37
17:14 17,1 13,2 6,4 WNW 6,4 1017,8 78 - 33
17:19 17,0 13,1 3,2 WNW 3,2 1017,8 78 - 32
17:24 16,9 13,2   Windstil 1,6 1017,8 79 - 32
17:29 16,8 13,1 1,4 WZW 6,4 1017,8 79 - 30
17:34 16,7 13,2 1,4 WNW 4,8 1017,8 80 - 30
17:39 16,6 13,1 1,4 WNW 1,6 1017,8 80 - 30
17:44 16,4 12,9 3,2 Westen 4,8 1017,8 80 - 32
17:49 16,3 12,8 1,4 Westen 6,4 1017,8 80 - 28
17:54 16,2 12,7 1,4 Westen 3,2 1017,8 80 - 26
17:59 16,1 12,8 3,2 WNW 4,8 1018,2 81 - 26
18:04 15,9 12,6 1,4 NW 6,4 1018,2 81 - 23
18:09 15,8 12,5 1,4 NW 3,2 1018,2 81 - 19
18:14 15,7 12,4 1,4 NW 4,8 1018,2 81 - 18
18:19 15,6 12,5 1,4 NW 4,8 1018,2 82 - 14
18:24 15,4 12,3 4,7 NW 4,8 1018,2 82 - 9
18:29 15,3 12,4 1,4 NW 3,2 1018,2 83 - 7
18:34 15,2 12,3   Windstil 4,8 1018,2 83 - 5
18:39 15,1 12,2   Windstil 3,2 1018,2 83 - -
18:44 14,9 12,2   Windstil 3,2 1018,2 84 - -
18:49 14,8 12,1 1,4 NW 3,2 1018,2 84 - -
18:54 14,7 12,0   Windstil 1,6 1018,5 84 - -
18:59 14,6 12,1 1,4 NW 4,8 1018,5 85 - -
19:04 14,4 11,9 1,4 NW 1,6 1018,5 85 - -
19:09 14,3 11,8   Windstil 1,6 1018,5 85 - -
19:14 14,2 11,7   Windstil   1018,5 85 - -
19:19 14,1 11,6   Windstil 1,6 1018,5 85 - -
19:24 13,9 11,4   Windstil   1018,5 85 - -
19:29 13,8 11,3   Windstil   1018,8 85 - -
19:34 13,7 11,2   Windstil 1,6 1018,8 85 - -
19:39 13,6 11,1   Windstil   1018,8 85 - -
19:44 13,4 10,9   Windstil 1,6 1018,8 85 - -
19:49 13,3 11,0   Windstil   1018,8 86 - -
19:54 13,2 10,9   Windstil   1018,8 86 - -
19:59 13,1 10,8   Windstil   1018,8 86 - -
Dagelijkse Samenvatting Woensdag 17 oktober 2018
Tijd Temp. ( °C ) Dew pt. ( °C ) Wind ( km/h ) van Windvlaag ( km/h ) Luchtdruk ( hPa ) Humid.( % ) Rainrate ( cm ) Zonneschijn ( W/m2 )
Hoog18,7 14,7 11,1 ZW ( 175/676 ) 16,1 1018,8 94 - 438
Gemiddeld14,3 11,8 2,9 ZW #51/230 -15,0 1003,2 84 - 134 #117/230
Laag-17,8 -17,8 -   -1607,4 0,0 0 -  
Dagelijkse Tabular details for Woensdag 17 oktober 2018
Tijd Temp. ( °C ) Dew pt. ( °C ) Wind ( km/h ) van Windvlaag ( km/h ) Luchtdruk ( hPa ) Humid.( % ) Rainrate ( cm ) Zonneschijn ( W/m2 )
00:01 14,2 12,4 1,4 ZO 1,6 1015,8 89 - -
00:05 14,2 12,4 1,4 ZO 4,8 1015,5 89 - -
00:09 14,1 12,1   Windstil 4,8 1015,5 88 - -
00:14 14,1 12,1 1,4 ZO 1,6 1015,5 88 - -
00:18 14,1 12,1   Windstil 3,2 1015,5 88 - -
00:23 14,1 12,1   Windstil 3,2 1015,5 88 - -
00:27 14,0 12,0 1,4 ZO 4,8 1015,5 88 - -
00:32 14,0 12,0 1,4 ZO 3,2 1015,5 88 - -
00:36 13,9 11,9 4,7 ZO 4,8 1015,5 88 - -
00:40 13,9 11,9 3,2 ZO 4,8 1015,5 88 - -
00:45 13,9 11,9 1,4 ZO 3,2 1015,5 88 - -
00:49 13,9 11,9 1,4 ZO 4,8 1015,5 88 - -
00:54 13,9 11,9 1,4 ZO 3,2 1015,5 88 - -
00:58 13,9 11,9 1,4 ZO 4,8 1015,5 88 - -
01:03 13,8 11,8 1,4 ZO 4,8 1015,1 88 - -
01:07 13,8 11,8 3,2 ZO 4,8 1015,5 88 - -
01:12 13,8 11,8 4,7 ZO 4,8 1015,5 88 - -
01:16 13,8 11,8 3,2 ZO 6,4 1015,5 88 - -
01:21 13,8 11,8 4,7 ZO 4,8 1015,5 88 - -
01:25 13,8 11,8 1,4 ZZO 6,4 1015,1 88 - -
01:30 13,8 11,7 1,4 ZZO 8,0 1015,5 87 - -
01:34 13,8 11,7 1,4 ZZO 6,4 1015,5 87 - -
01:39 13,8 11,7 4,7 ZZO 8,0 1015,5 87 - -
01:43 13,8 11,7 6,4 ZZO 6,4 1015,1 87 - -
01:47 13,8 11,7 1,4 ZZO 4,8 1015,5 87 - -
01:52 13,9 11,8 3,2 ZZO 4,8 1015,5 87 - -
01:56 13,9 11,6 1,4 ZZO 4,8 1015,5 86 - -
02:01 13,9 11,6 1,4 ZZO 4,8 1015,1 86 - -
02:06 13,9 11,6 1,4 ZZO 6,4 1015,1 86 - -
02:10 13,9 11,6 6,4 ZZO 9,7 1015,1 86 - -
02:14 13,9 11,6 4,7 ZZO 6,4 1015,1 86 - -
02:19 14,0 11,7 4,7 ZZO 11,3 1015,1 86 - -
02:23 14,1 11,8 3,2 ZZO 6,4 1015,1 86 - -
02:28 14,2 11,7 4,7 ZZO 11,3 1015,1 85 - -
02:32 14,2 11,7 6,4 ZZO 8,0 1015,1 85 - -
02:37 14,3 11,8 3,2 ZZO 11,3 1015,1 85 - -
02:41 14,4 11,7 6,4 ZZO 9,7 1015,1 84 - -
02:46 14,6 11,9 7,9 ZZO 9,7 1015,1 84 - -
02:50 14,6 11,9 4,7 Zuiden 8,0 1015,1 84 - -
02:54 14,6 11,9 9,7 ZZO 9,7 1015,1 84 - -
02:59 14,6 11,7 3,2 Zuiden 6,4 1015,1 83 - -
03:03 14,6 11,7 3,2 Zuiden 4,8 1015,1 83 - -
03:07 14,6 11,7 3,2 Zuiden 6,4 1015,1 83 - -
03:12 14,6 11,7 3,2 Zuiden 6,4 1015,1 83 - -
03:16 14,6 11,7 3,2 ZW 4,8 1015,5 83 - -
03:21 14,5 11,6 1,4 ZW 4,8 1015,1 83 - -
03:25 14,4 11,5 3,2 ZW 3,2 1015,1 83 - -
03:30 14,3 11,5 3,2 ZW 4,8 1015,1 83 - -
03:34 14,2 11,5   Windstil 3,2 1015,1 84 - -
03:39 14,2 11,5   Windstil   1015,1 84 - -
03:43 14,0 11,3 1,4 ZW 4,8 1015,1 84 - -
03:47 13,9 11,2 3,2 ZW 3,2 1015,1 84 - -
03:52 13,7 11,0 1,4 ZW 4,8 1015,1 84 - -
03:56 13,6 11,1 3,2 ZW 4,8 1015,1 85 - -
04:01 13,6 11,1 1,4 ZW 3,2 1015,1 85 - -
04:06 13,4 10,9 3,2 ZW 3,2 1015,1 85 - -
04:10 13,3 10,8   Windstil 1,6 1015,1 85 - -
04:15 13,2 10,9   Windstil 3,2 1015,1 86 - -
04:19 13,2 10,9   Windstil 3,2 1015,1 86 - -
04:23 13,1 10,8   Windstil 1,6 1015,1 86 - -
04:28 13,0 10,7   Windstil 3,2 1015,1 86 - -
04:32 12,9 10,6 1,4 ZW 1,6 1015,1 86 - -
04:37 12,8 10,5   Windstil 1,6 1015,1 86 - -
04:42 12,7 10,6 3,2 ZW 4,8 1015,1 87 - -
04:46 12,7 10,6 1,4 ZW 4,8 1015,1 87 - -
04:51 12,6 10,5   Windstil 3,2 1015,1 87 - -
04:55 12,5 10,4   Windstil 3,2 1015,1 87 - -
04:59 12,4 10,3 3,2 ZW 3,2 1015,1 87 - -
05:04 12,4 10,5   Windstil 3,2 1015,1 88 - -
05:09 12,3 10,4 1,4 ZW 1,6 1015,1 88 - -
05:13 12,3 10,4 1,4 ZW 3,2 1015,1 88 - -
05:18 12,3 10,4 1,4 ZW 6,4 1015,1 88 - -
05:22 12,3 10,4 1,4 ZW 3,2 1015,1 88 - -
05:27 12,2 10,4 3,2 ZW 4,8 1015,1 89 - -
05:31 12,2 10,4 1,4 ZW 4,8 1015,1 89 - -
05:36 12,2 10,4 1,4 ZZW 6,4 1015,1 89 - -
05:40 12,2 10,4 1,4 ZZW 4,8 1015,1 89 - -
05:45 12,2 10,4 3,2 ZZW 4,8 1015,1 89 - -
05:49 12,2 10,4 1,4 ZZW 4,8 1015,1 89 - -
05:54 12,2 10,6 3,2 ZZW 4,8 1015,1 90 - -
05:58 12,2 10,6 4,7 ZZW 6,4 1015,1 90 - -
06:03 12,2 10,6 3,2 Zuiden 6,4 1015,1 90 - -
06:07 12,2 10,6 4,7 Zuiden 4,8 1015,1 90 - -
06:11 12,2 10,6 4,7 Zuiden 6,4 1015,1 90 - -
06:17 12,2 10,6 3,2 Zuiden 6,4 1015,1 90 - -
06:21 12,2 10,6 1,4 Zuiden 3,2 1015,5 90 - -
06:25 12,2 10,6 1,4 Zuiden 4,8 1015,5 90 - -
06:30 12,2 10,6 4,7 Zuiden 4,8 1015,5 90 - -
06:33 12,1 10,5 3,2 Zuiden 4,8 1015,5 90 - -
07:54 11,9 10,1   Windstil 3,2 1015,8 89 - -
07:58 11,9 10,1 1,4 ZZW 3,2 1015,8 89 - -
08:02 11,8 10,0 3,2 ZZW 4,8 1015,8 89 - -
08:06 11,7 9,9 1,4 ZZW 4,8 1015,8 89 - -
08:11 11,7 9,9   Windstil 4,8 1015,8 89 - 5
08:16 11,6 10,0 3,2 ZZW 3,2 1016,1 90 - 7
08:20 11,5 9,9   Windstil 1,6 1016,1 90 - 11
08:24 11,4 9,8   Windstil 3,2 1016,1 90 - 12
08:28 11,4 9,8 1,4 ZZW 3,2 1016,1 90 - 14
08:33 11,4 9,8 1,4 ZZW 3,2 1016,1 90 - 16
08:37 11,3 9,7 1,4 ZZW 3,2 1016,1 90 - 18
08:41 11,3 9,7 3,2 ZZW 4,8 1016,1 90 - 21
08:46 11,3 9,9 3,2 ZZW 4,8 1016,1 91 - 26
08:51 11,4 10,0 1,4 ZZW 3,2 1016,1 91 - 32
08:55 11,4 10,1 1,4 ZZW 4,8 1016,1 92 - 35
08:59 11,5 10,2 3,2 ZZW 3,2 1016,1 92 - 42
09:03 11,6 10,3 3,2 ZZW 4,8 1016,1 92 - 47
09:08 11,7 10,6 4,7 ZZW 6,4 1016,1 93 - 54
09:12 11,8 10,7 3,2 ZZW 4,8 1016,1 93 - 58
09:16 11,9 10,8 3,2 ZZW 6,4 1016,1 93 - 63
09:20 12,1 11,0 4,7 ZW 6,4 1016,1 93 - 63
09:25 12,3 11,2 4,7 ZW 6,4 1016,5 93 - 70
09:30 12,4 11,3 4,7 ZW 6,4 1016,5 93 - 74
09:34 12,6 11,7 3,2 ZW 6,4 1016,5 94 - 76
09:39 12,7 11,6 7,9 ZW 8,0 1016,5 93 - 76
09:43 12,8 11,7 4,7 ZZW 6,4 1016,5 93 - 76
09:48 12,9 11,8 3,2 ZZW 4,8 1016,5 93 - 81
09:52 13,1 12,0 3,2 ZW 6,4 1016,5 93 - 84
09:56 13,2 12,1 4,7 ZW 6,4 1016,5 93 - 83
10:01 13,3 12,2   Windstil 4,8 1016,5 93 - 74
10:05 13,4 12,3 3,2 ZW 4,8 1016,5 93 - 69
10:10 13,4 12,3 4,7 ZW 6,4 1016,8 93 - 69
10:14 13,6 12,5 3,2 ZW 4,8 1016,8 93 - 72
10:19 13,7 12,6 3,2 ZW 4,8 1016,8 93 - 72
10:23 13,8 12,7 4,7 ZW 6,4 1016,8 93 - 70
10:28 13,9 12,8 1,4 ZW 4,8 1016,8 93 - 69
10:32 14,0 12,9 1,4 ZW 4,8 1016,8 93 - 74
10:36 14,1 13,0 1,4 ZW 6,4 1016,8 93 - 72
10:41 14,2 13,1 1,4 ZW 6,4 1016,8 93 - 70
10:45 14,3 13,2 3,2 ZW 4,8 1016,8 93 - 74
10:50 14,5 13,5 3,2 ZW 4,8 1016,8 94 - 74
10:55 14,7 13,7 1,4 ZW 8,0 1016,8 94 - 76
10:59 14,8 13,8 4,7 ZW 6,4 1016,8 94 - 77
11:03 15,0 14,0 6,4 ZW 8,0 1016,8 94 - 77
11:08 15,1 14,1 4,7 ZZW 8,0 1016,8 94 - 84
11:12 15,3 14,3 3,2 ZW 6,4 1016,8 94 - 86
11:43 -17,8 -17,8   Windstil -1607,4 0,0 0 - -
11:54 -17,8 -17,8   Windstil -1607,4 0,0 0 - -
12:12 -17,8 -17,8   Windstil -1607,4 0,0 0 - -
12:20 17,1 14,6 6,4 Westen 9,7 1017,2 85 - 271
12:29 17,2 14,5 3,2 ZW 6,4 1017,2 84 - 220
12:34 17,3 14,6 3,2 Westen 6,4 1017,2 84 - 287
12:39 17,3 14,6 4,7 ZW 6,4 1017,2 84 - 264
12:44 17,4 14,7 9,7 ZW 12,9 1017,2 84 - 306
12:49 17,6 14,7 6,4 ZW 6,4 1017,2 83 - 260
12:54 17,7 14,6 9,7 ZZW 9,7 1017,2 82 - 311
12:59 17,8 14,7 4,7 ZW 9,7 1017,2 82 - 290
13:04 17,9 14,4 4,7 WNW 9,7 1017,2 80 - 345
13:09 17,9 14,4 4,7 ZZW 12,9 1017,2 80 - 388
13:14 18,1 14,4 4,7 ZW 11,3 1017,2 79 - 374
13:19 18,2 14,3 7,9 ZW 11,3 1017,2 78 - 371
13:24 18,3 14,2   Windstil 8,0 1017,2 77 - 369
13:29 18,3 14,4 6,4 Westen 6,4 1017,2 78 - 392
13:34 18,3 14,2 7,9 WZW 8,0 1017,2 77 - 371
13:39 18,4 14,3 7,9 ZZW 12,9 1017,2 77 - 404
13:44 18,5 14,0 1,4 Westen 11,3 1017,2 75 - 104
13:49 18,5 14,2 1,4 Westen 8,0 1017,2 76 - 378
13:54 18,5 14,2 7,9 ZW 12,9 1017,2 76 - 438
13:59 18,6 14,1 3,2 Westen 9,7 1017,2 75 - 422
14:04 18,7 14,2 1,4 ZW 6,4 1017,2 75 - 406
14:09 18,7 14,0 3,2 Westen 12,9 1017,2 74 - 408
14:14 18,7 14,0 3,2 Westen 11,3 1017,2 74 - 202
14:19 18,6 13,9 6,4 Westen 9,7 1017,2 74 - 381
14:24 18,6 14,1 1,4 Westen 14,5 1017,2 75 - 359
14:29 18,5 13,8 3,2 Westen 9,7 1017,2 74 - 299
14:34 18,5 14,0 4,7 Westen 11,3 1017,2 75 - 397
14:39 18,5 14,0 3,2 Westen 6,4 1017,2 75 - 397
14:44 18,5 14,0 4,7 Westen 11,3 1017,2 75 - 109
14:49 18,4 13,9   Windstil 6,4 1017,2 75 - 142
14:54 18,3 13,8 6,4 WNW 12,9 1017,2 75 - 123
14:59 18,3 13,8 4,7 WNW 9,7 1017,2 75 - 149
15:04 18,2 13,7 9,7 Westen 14,5 1017,2 75 - 134
15:09 18,2 13,9 3,2 WNW 8,0 1017,5 76 - 352
15:14 18,2 13,7 4,7 Westen 4,8 1017,5 75 - 107
15:19 18,2 13,7 1,4 WZW 11,3 1017,5 75 - 125
15:24 18,1 13,6 3,2 Westen 12,9 1017,5 75 - 127
15:29 18,1 13,6 6,4 Westen 12,9 1017,5 75 - 130
15:34 18,1 13,6 1,4 WNW 11,3 1017,5 75 - 109
15:39 18,0 13,3 9,7 Westen 16,1 1017,5 74 - 125
15:44 18,0 13,3 1,4 WZW 12,9 1017,5 74 - 116
15:49 18,0 13,5 1,4 WNW 11,3 1017,5 75 - 141
15:54 18,0 13,3 6,4 WZW 11,3 1017,5 74 - 142
15:59 18,0 13,5 9,7 Westen 16,1 1017,5 75 - 105
16:04 18,0 13,3 1,4 Westen 9,7 1017,5 74 - 98
16:09 17,9 13,4 6,4 WZW 9,7 1017,5 75 - 91
16:14 17,9 13,8 9,7 NW 14,5 1017,5 77 - 86
16:19 17,8 13,9 7,9 NNW 8,0 1017,5 78 - 98
16:24 17,8 13,9 3,2 Westen 6,4 1017,8 78 - 132
16:29 17,8 14,1 9,7 Westen 11,3 1017,8 79 - 95
16:34 17,7 14,0 4,7 NW 6,4 1017,8 79 - 104
16:39 17,6 14,1 3,2 NW 11,3 1017,8 80 - 105
16:44 17,5 13,8 4,7 WNW 11,3 1017,8 79 - 118
16:49 17,5 13,8 11,1 Westen 11,3 1017,8 79 - 105
16:54 17,5 13,8 1,4 Westen 11,3 1017,8 79 - 91
16:59 17,4 13,5 3,2 NW 11,3 1017,8 78 - 67
17:04 17,3 13,2 4,7 Westen 6,4 1017,8 77 - 49
17:09 17,2 13,1 3,2 Westen 9,7 1017,8 77 - 37
17:14 17,1 13,2 6,4 WNW 6,4 1017,8 78 - 33
17:19 17,0 13,1 3,2 WNW 3,2 1017,8 78 - 32
17:24 16,9 13,2   Windstil 1,6 1017,8 79 - 32
17:29 16,8 13,1 1,4 WZW 6,4 1017,8 79 - 30
17:34 16,7 13,2 1,4 WNW 4,8 1017,8 80 - 30
17:39 16,6 13,1 1,4 WNW 1,6 1017,8 80 - 30
17:44 16,4 12,9 3,2 Westen 4,8 1017,8 80 - 32
17:49 16,3 12,8 1,4 Westen 6,4 1017,8 80 - 28
17:54 16,2 12,7 1,4 Westen 3,2 1017,8 80 - 26
17:59 16,1 12,8 3,2 WNW 4,8 1018,2 81 - 26
18:04 15,9 12,6 1,4 NW 6,4 1018,2 81 - 23
18:09 15,8 12,5 1,4 NW 3,2 1018,2 81 - 19
18:14 15,7 12,4 1,4 NW 4,8 1018,2 81 - 18
18:19 15,6 12,5 1,4 NW 4,8 1018,2 82 - 14
18:24 15,4 12,3 4,7 NW 4,8 1018,2 82 - 9
18:29 15,3 12,4 1,4 NW 3,2 1018,2 83 - 7
18:34 15,2 12,3   Windstil 4,8 1018,2 83 - 5
18:39 15,1 12,2   Windstil 3,2 1018,2 83 - -
18:44 14,9 12,2   Windstil 3,2 1018,2 84 - -
18:49 14,8 12,1 1,4 NW 3,2 1018,2 84 - -
18:54 14,7 12,0   Windstil 1,6 1018,5 84 - -
18:59 14,6 12,1 1,4 NW 4,8 1018,5 85 - -
19:04 14,4 11,9 1,4 NW 1,6 1018,5 85 - -
19:09 14,3 11,8   Windstil 1,6 1018,5 85 - -
19:14 14,2 11,7   Windstil   1018,5 85 - -
19:19 14,1 11,6   Windstil 1,6 1018,5 85 - -
19:24 13,9 11,4   Windstil   1018,5 85 - -
19:29 13,8 11,3   Windstil   1018,8 85 - -
19:34 13,7 11,2   Windstil 1,6 1018,8 85 - -
19:39 13,6 11,1   Windstil   1018,8 85 - -
19:44 13,4 10,9   Windstil 1,6 1018,8 85 - -
19:49 13,3 11,0   Windstil   1018,8 86 - -
19:54 13,2 10,9   Windstil   1018,8 86 - -
19:59 13,1 10,8   Windstil   1018,8 86 - -

Download your copy of this data-set  here

Our weather-data as stored at Weather Underground. Script ontwikkeld door Jim McMurry. Aangepast voor de template door Leuven-Template.eu

U vindt ons ook hier:

Het Weer Aktueel

UK Metoffice

European Weather Network

Weather Underground

AWEKAS

Citizen Weather Observer Program (CWOP)

HAMweather, WeatherForYou, PWS Weather

Apparatuur in gebruik:

Weerstation
Davis Vantage pro 2

Weerprogramma
Meteobridge

Weercomputer
TP-Link TL-WR703N

Webleverancier
Versio

Davis Vantage pro 2

Meteobridge

TP-Link TL-WR703N

Versio